Weather History for Park Rapids, MN

Change the Weather History Date:

Thursday, November 8, 2012

  Actual Average Record
Temperature  
Mean Temperature 40 °F -  
Max Temperature 46 °F 40 °F 69 °F (1999)
Min Temperature 34 °F 22 °F -13 °F (2003)
Degree Days  
Heating Degree Days 25    
Moisture  
Dew Point 32 °F    
Average Humidity 78    
Maximum Humidity 85    
Minimum Humidity 63    
Precipitation  
Precipitation 0.00 in - - ()
Sea Level Pressure  
Sea Level Pressure 29.98 in    
Wind  
Wind Speed 12 mph (North)    
Max Wind Speed 23 mph    
Max Gust Speed 22 mph    
Visibility 10 miles    
Events      
Averages and records for this station are not official NWS values.
T = Trace of Precipitation, MM = Missing Value Source: NWS Daily Summary

Daily Weather History Graph

Daily Weather History Graph

Search for Another Location

Airport:

Trip Planner

Search our weather history database for the weather conditions in past years. The results will help you decide how hot, cold, wet, or windy it might be!

Date:

Astronomy

Nov. 08, 2012 Rise Set
Actual Time 7:13 AM CST 4:53 PM CST
Civil Twilight 6:41 AM CST 5:26 PM CST
Nautical Twilight 6:04 AM CST 6:02 PM CST
Astronomical Twilight 5:29 AM CST 6:38 PM CST
Moon 12:48 AM CST (11/8) 1:54 PM CST (11/8)
Length of Visible Light 10h 44m
Length of Day
9h 39m
Waning Crescent, 32% of the Moon is Illuminated
Nov 8
Waning Crescent
Nov 13
New
Nov 20
First Quarter
Nov 28
Full
Dec 6
Last Quarter

Hourly Weather History & Observations

Time (CST) Temp. Windchill Dew Point Humidity Pressure Visibility Wind Dir Wind Speed Gust Speed Precip Events Conditions
12:53 AM 39.0 °F 31.4 °F 30.9 °F 73% 29.93 in 10.0 mi South 12.7 mph - N/A   Clear
1:53 AM 39.0 °F 28.5 °F 30.9 °F 73% 29.88 in 10.0 mi SSE 23.0 mph - N/A   Partly Cloudy
2:53 AM 37.9 °F 30.0 °F 30.9 °F 76% 29.89 in 10.0 mi South 12.7 mph 20.7 mph N/A   Clear
3:53 AM 37.0 °F 29.3 °F 30.9 °F 79% 29.88 in 10.0 mi South 11.5 mph - N/A   Clear
4:53 AM 35.6 °F 29.2 °F 30.2 °F 81% 29.85 in 10.0 mi South 8.1 mph - N/A   Clear
5:53 AM 34.0 °F 28.0 °F 30.0 °F 85% 29.88 in 10.0 mi South 6.9 mph - N/A   Clear
6:53 AM 34.0 °F 29.8 °F 30.0 °F 85% 29.89 in 10.0 mi South 4.6 mph - N/A   Clear
7:53 AM 35.1 °F 27.9 °F 30.9 °F 85% 29.90 in 10.0 mi South 9.2 mph - N/A   Clear
8:53 AM 37.0 °F 30.4 °F 30.9 °F 79% 29.91 in 10.0 mi SSW 9.2 mph - N/A   Clear
9:53 AM 39.0 °F 32.8 °F 32.0 °F 76% 29.91 in 10.0 mi SW 9.2 mph - N/A   Mostly Cloudy
10:53 AM 44.1 °F 37.7 °F 33.1 °F 65% 29.93 in 10.0 mi West 12.7 mph - N/A   Mostly Cloudy
11:53 AM 46.9 °F - 35.1 °F 63% 29.93 in 10.0 mi NW 15.0 mph 21.9 mph N/A   Clear
12:35 PM 44.6 °F 38.4 °F 35.6 °F 71% 29.91 in 10.0 mi NW 12.7 mph - N/A   Overcast
12:53 PM 43.0 °F 36.4 °F 35.1 °F 74% 29.95 in 10.0 mi NNW 12.7 mph - N/A   Overcast
1:18 PM 42.8 °F 35.8 °F 35.6 °F 76% 29.92 in 10.0 mi NW 13.8 mph 21.9 mph N/A   Overcast
1:53 PM 39.0 °F 31.0 °F 34.0 °F 82% 29.98 in 10.0 mi NW 13.8 mph - N/A   Overcast
2:53 PM 39.9 °F 32.9 °F 34.0 °F 79% 30.00 in 10.0 mi NNW 11.5 mph - N/A   Overcast
3:05 PM 39.2 °F 32.0 °F 33.8 °F 81% 29.95 in 10.0 mi North 11.5 mph - N/A   Overcast
3:39 PM 39.2 °F 32.0 °F 33.8 °F 81% 29.97 in 10.0 mi North 11.5 mph - N/A   Overcast
3:53 PM 39.9 °F 32.9 °F 34.0 °F 79% 30.02 in 10.0 mi NNW 11.5 mph - N/A   Overcast
4:53 PM 39.9 °F 31.8 °F 34.0 °F 79% 30.04 in 10.0 mi North 15.0 mph - N/A   Overcast
5:42 PM 39.2 °F 32.5 °F 33.8 °F 81% 30.02 in 10.0 mi North 10.4 mph - N/A   Overcast
5:53 PM 39.9 °F 33.9 °F 34.0 °F 79% 30.07 in 10.0 mi North 9.2 mph - N/A   Overcast
6:08 PM 39.2 °F 31.6 °F 33.8 °F 81% 30.03 in 10.0 mi North 12.7 mph 20.7 mph N/A   Overcast
6:53 PM 39.0 °F 33.4 °F 32.0 °F 76% 30.08 in 10.0 mi NE 8.1 mph - N/A   Overcast
7:53 PM 39.0 °F 31.8 °F 30.9 °F 73% 30.09 in 10.0 mi NE 11.5 mph 18.4 mph N/A   Overcast
8:53 PM 37.9 °F 32.7 °F 30.9 °F 76% 30.09 in 10.0 mi NNE 6.9 mph - N/A   Overcast
9:53 PM 37.0 °F 32.4 °F 28.9 °F 73% 30.11 in 10.0 mi NNE 5.8 mph - N/A   Overcast
10:53 PM 36.0 °F 29.6 °F 30.0 °F 79% 30.12 in 10.0 mi NNE 8.1 mph - N/A   Overcast
11:05 PM 35.6 °F 29.9 °F 30.2 °F 81% 30.07 in 10.0 mi NNE 6.9 mph - N/A   Overcast
11:53 PM 36.0 °F 30.3 °F 30.9 °F 82% 30.12 in 10.0 mi NNE 6.9 mph - N/A   Overcast